Vorticity
nan nan nan nan nan nan nan nan nan nan nan nan nan nan nan nan nan nan nan nan nan nan nan nan nan nan nan nan nan nan nan nan nan nan nan nan nan nan nan nan nan nan nan nan nan nan nan nan nan nan nan nan nan nan nan nan nan nan nan nan nan nan nan nan nan nan nan nan nan
nan 10 10 10 8 8 9 10 10 10 10 11 11 9 9 9 9 9 9 9 9 9 8 8 8 9 9 10 10 9 8 8 8 7 7 7 8 8 8 9 9 9 8 9 9 9 9 9 9 9 9 9 9 10 11 11 9 7 7 8 10 10 8 7 9 10 10 10 nan
nan 8 9 9 10 9 9 9 10 10 10 10 11 10 10 9 9 9 9 9 9 9 9 9 8 9 9 9 9 10 9 7 7 7 7 7 8 8 9 9 8 8 9 9 8 9 9 9 8 8 9 9 8 9 11 11 8 7 7 9 10 9 8 8 10 11 10 10 nan
nan 8 9 11 11 10 9 10 11 10 8 8 9 9 10 10 10 9 9 9 9 9 9 9 9 10 10 9 10 10 9 8 8 8 7 8 8 9 9 9 9 9 9 9 8 9 9 9 9 8 9 8 8 8 10 10 9 8 9 10 10 8 7 8 10 10 9 10 nan
nan 9 10 11 10 9 9 12 12 8 6 7 9 9 9 9 10 10 9 9 8 9 10 11 11 11 11 10 9 8 8 8 8 7 7 8 8 9 9 9 8 9 9 9 9 8 9 9 10 9 9 8 8 9 10 9 8 8 9 10 9 9 8 9 10 10 9 9 nan
nan 9 11 12 11 10 11 13 11 8 7 9 12 11 10 10 11 11 10 8 8 9 10 10 10 10 10 9 8 7 7 7 7 7 8 8 8 9 9 9 9 9 9 9 9 9 9 9 10 9 9 9 10 10 10 9 7 8 8 9 10 9 9 9 9 9 8 7 nan
nan 10 10 11 12 12 12 12 10 8 8 11 12 11 10 11 12 12 10 9 7 7 8 7 9 9 9 8 7 7 7 8 8 8 8 8 8 9 9 9 9 9 9 9 9 9 10 9 8 8 8 9 11 11 10 9 7 7 7 9 10 10 10 9 9 8 8 7 nan
nan 11 11 12 12 12 12 11 9 8 9 11 11 10 9 10 10 9 8 7 7 8 8 8 9 10 9 8 7 7 7 8 8 9 9 8 8 8 9 9 9 9 10 10 9 9 10 9 8 8 8 8 9 9 9 8 7 7 7 9 10 9 9 9 9 8 8 9 nan
nan 11 12 13 12 11 11 10 9 10 11 13 12 10 9 9 8 6 5 6 8 9 9 9 10 9 9 8 7 7 7 7 8 9 9 8 8 9 9 9 9 10 10 10 9 9 9 9 8 8 8 8 8 8 9 8 7 7 8 9 9 9 8 8 8 9 9 9 nan
nan 10 10 10 11 11 10 9 10 11 11 11 10 10 10 9 6 5 6 7 8 9 9 9 9 8 8 7 7 7 8 7 7 8 8 8 8 9 9 8 8 9 10 11 10 9 9 9 8 8 9 8 8 8 9 8 6 7 8 9 8 8 8 8 9 9 10 9 nan
nan 10 9 9 9 9 8 8 8 9 9 9 8 8 9 7 6 7 8 9 9 9 9 9 9 8 7 7 7 8 8 8 8 8 8 8 8 8 8 8 8 8 9 10 10 10 9 8 7 8 9 9 9 9 9 7 6 7 8 9 8 8 8 8 9 9 10 10 nan
nan 9 10 10 10 9 8 7 6 7 8 8 7 7 7 7 7 8 8 11 10 8 7 9 9 8 7 7 8 8 9 9 9 8 8 8 8 9 8 8 8 8 9 10 11 10 8 7 6 7 8 9 9 8 7 7 7 7 8 9 8 7 7 7 8 10 10 10 nan
nan 9 9 10 10 9 8 7 7 8 9 8 6 7 7 8 8 8 8 10 8 7 7 9 9 8 8 8 8 9 9 9 9 8 8 8 9 9 9 9 9 9 9 11 11 9 8 7 6 6 7 8 8 7 7 8 7 7 7 8 7 6 6 7 9 9 8 8 nan
nan 9 9 9 8 7 7 7 7 8 9 8 7 7 7 8 9 9 10 9 7 7 8 9 9 9 9 9 9 9 9 9 9 8 8 9 9 8 9 9 9 9 10 10 10 9 7 7 7 7 6 7 7 8 8 8 8 8 7 7 7 7 8 9 10 9 8 7 nan
nan 8 8 8 7 7 7 6 7 8 8 7 7 7 7 8 9 10 11 9 7 7 8 10 9 9 10 10 9 9 9 9 8 8 8 9 9 9 8 9 9 9 9 10 10 9 8 7 8 7 7 7 7 8 8 8 8 8 8 8 8 8 8 9 9 9 9 8 nan
nan 7 7 8 8 8 8 7 8 8 8 7 8 8 8 8 8 10 10 9 7 8 10 10 10 9 9 10 10 9 8 8 8 7 7 8 8 8 8 8 9 9 9 9 9 9 8 8 8 8 7 7 8 8 8 9 9 9 9 9 9 9 9 9 9 9 10 10 nan
nan 7 8 9 9 9 9 9 10 10 10 9 8 8 8 8 9 9 10 8 8 10 11 10 10 9 10 10 10 9 8 8 8 7 7 8 8 8 8 8 9 9 9 8 7 8 8 9 9 9 8 8 9 9 9 9 9 9 9 10 10 10 9 9 9 10 10 10 nan
nan 8 10 11 10 9 10 10 11 11 10 8 8 8 9 9 10 9 9 9 10 10 9 9 10 10 10 10 9 9 9 8 8 8 8 8 8 7 7 8 9 9 9 8 7 7 7 8 9 9 9 9 10 10 10 11 10 10 10 10 10 10 10 10 10 10 10 9 nan
nan 9 10 10 9 9 9 9 9 9 8 7 8 9 10 10 10 9 9 10 11 10 8 8 9 10 9 9 9 9 9 8 8 8 9 9 8 8 7 8 9 9 9 8 7 7 7 8 9 9 9 9 10 10 11 11 11 11 11 11 11 10 10 10 10 10 9 9 nan
nan 9 9 9 8 8 8 7 7 7 8 9 9 10 10 10 10 10 10 10 10 9 8 8 9 9 9 8 9 9 9 9 8 8 9 9 9 8 8 8 9 9 9 8 8 8 8 8 9 9 10 10 10 11 11 11 11 11 11 11 11 10 10 10 10 9 9 9 nan
nan 8 8 8 8 8 8 7 8 8 9 10 10 9 9 10 11 10 9 8 8 8 9 8 8 8 8 8 9 9 9 10 9 9 9 9 9 9 9 9 9 9 8 8 8 8 9 9 10 11 12 13 12 11 11 10 10 10 10 10 10 10 10 9 9 9 9 10 nan
nan 8 8 9 10 10 9 9 9 9 10 9 9 9 9 10 10 9 9 8 8 9 9 8 7 7 7 7 8 9 9 10 10 9 9 9 9 9 10 9 8 8 7 8 9 10 11 12 13 14 14 13 12 11 10 9 9 10 10 9 9 9 10 10 10 10 10 10 nan
nan 9 9 10 10 10 9 8 9 9 9 9 10 10 10 10 9 9 10 11 11 10 8 7 7 8 8 8 7 8 9 10 10 10 10 9 9 9 10 10 8 8 8 10 10 11 12 14 15 16 14 12 11 10 10 10 10 10 9 9 9 9 10 10 10 10 10 10 nan
nan 10 10 10 10 9 7 7 8 9 9 9 10 10 10 9 9 9 9 11 10 9 9 9 8 8 8 9 8 8 8 8 9 10 10 9 9 10 10 10 9 9 10 8 5 6 9 13 15 14 13 11 11 11 12 11 11 10 8 8 8 8 9 10 10 9 9 10 nan
nan 11 11 11 10 9 8 9 9 9 9 9 10 10 9 9 9 8 8 9 8 8 9 9 10 10 10 10 10 9 7 7 7 8 8 9 9 10 11 10 10 10 9 1 -4 0 6 11 14 13 12 12 11 12 13 12 10 9 8 7 7 8 8 9 10 10 10 11 nan
nan 10 10 10 10 9 10 10 9 9 9 9 9 9 9 9 9 8 8 8 8 8 8 9 10 10 11 10 10 9 9 7 7 7 7 8 9 10 10 10 10 10 5 -3 -3 3 6 8 11 14 16 15 12 13 13 12 11 9 8 7 7 7 7 8 9 10 10 11 nan
nan 8 9 10 10 10 10 9 9 9 10 10 9 9 8 9 9 9 9 8 8 8 8 8 9 9 10 9 8 9 9 9 8 8 8 8 8 8 9 10 11 7 -0 -4 1 6 8 8 9 13 18 17 15 14 13 12 10 9 8 7 7 7 7 7 8 9 10 10 nan
nan 9 9 10 9 9 9 10 10 10 10 9 8 8 9 10 10 9 9 8 8 8 9 8 9 9 9 8 7 8 9 9 9 9 9 8 8 8 9 10 7 2 -4 -2 5 8 9 9 9 10 14 18 20 16 14 11 9 9 8 8 8 8 8 8 9 9 9 10 nan
nan 9 9 9 9 9 9 10 9 8 7 7 7 8 9 10 9 9 8 8 8 9 10 9 10 10 9 8 8 8 9 9 10 9 8 8 8 9 8 8 6 1 -3 1 8 9 9 9 9 9 10 17 23 19 15 11 9 9 8 8 8 8 8 8 7 8 8 9 nan
nan 9 9 8 9 9 9 9 8 8 7 8 8 9 9 8 8 8 8 8 8 9 10 10 9 9 9 9 9 9 9 10 10 9 7 7 7 8 8 9 8 3 -1 2 7 9 9 9 9 9 9 15 23 23 17 10 8 8 8 8 8 7 7 7 7 7 6 6 nan
nan 9 9 9 9 8 8 8 8 8 10 11 10 9 8 7 7 7 7 7 7 8 10 10 9 9 10 10 9 8 9 10 9 8 7 6 7 9 10 10 8 4 -2 1 7 8 9 9 10 9 9 15 25 26 18 10 8 8 8 8 7 7 7 8 8 7 6 5 nan
nan 9 9 9 8 8 7 8 8 10 10 11 10 9 8 8 7 8 8 7 7 8 9 9 8 9 9 10 9 9 8 9 8 8 8 8 10 10 9 10 10 4 -3 0 7 8 9 9 10 9 9 17 27 26 18 11 9 9 9 9 8 7 7 6 6 7 7 6 nan
nan 9 9 8 7 7 8 9 9 10 9 9 9 9 8 7 8 9 9 10 9 8 8 8 8 8 9 9 9 8 8 8 8 8 9 10 10 9 9 11 9 1 -4 1 7 9 9 10 9 9 9 19 29 24 16 11 10 10 9 9 9 9 8 6 5 5 7 8 nan
nan 9 8 8 7 8 8 9 9 9 8 8 9 9 8 8 8 9 10 10 11 9 8 8 8 8 8 8 8 7 7 8 9 9 10 10 10 9 9 11 5 -4 -5 2 8 9 9 9 9 9 11 24 30 22 14 11 10 9 8 8 9 9 8 8 7 7 8 9 nan
nan 8 8 8 8 9 9 9 9 8 8 8 8 8 9 9 8 8 9 10 11 10 9 9 9 9 9 9 8 7 6 8 9 9 9 10 9 9 9 9 3 -6 -4 3 8 9 9 9 8 10 16 28 28 19 12 11 10 9 9 9 8 8 8 8 9 9 11 12 nan
nan 8 8 9 9 10 9 9 8 8 8 8 7 7 8 9 8 8 8 9 10 10 10 10 10 9 10 10 9 8 8 8 8 8 9 9 9 9 9 9 4 -3 -2 3 7 8 8 9 9 12 22 30 24 15 11 11 11 11 10 10 9 9 9 10 10 11 12 13 nan
nan 9 9 9 9 9 9 9 8 8 8 7 7 7 7 8 9 9 9 10 9 9 10 11 9 8 8 9 10 9 9 8 7 8 8 9 9 9 9 10 7 1 -1 1 5 6 8 8 9 15 25 27 19 13 12 12 11 11 11 10 10 11 11 12 14 15 15 13 nan
nan 10 10 9 9 9 9 9 9 8 7 6 7 8 8 8 8 9 10 11 9 9 9 9 8 7 8 8 9 10 10 9 8 8 8 9 9 8 9 10 8 5 -0 -1 2 5 7 8 10 14 24 24 17 14 12 11 10 9 10 10 11 12 12 13 15 16 16 11 nan
nan 10 10 9 8 8 9 9 8 7 6 7 8 9 9 10 10 10 10 11 10 9 8 8 7 7 7 9 10 11 11 11 10 9 9 8 6 6 9 11 8 5 -1 -2 1 4 7 8 9 13 22 25 19 14 12 10 9 9 10 10 11 12 14 14 15 15 15 7 nan
nan 10 10 9 8 8 8 9 7 6 6 7 8 9 10 10 10 10 10 11 10 9 8 7 7 8 8 10 11 10 10 10 10 9 8 6 5 6 12 14 9 6 2 0 1 3 6 8 9 13 24 25 17 12 11 10 9 10 10 9 9 11 14 16 15 13 11 6 nan
nan nan nan nan nan nan nan nan nan nan nan nan nan nan nan nan nan nan nan nan nan nan nan nan nan nan nan nan nan nan nan nan nan nan nan nan nan nan nan nan nan nan nan nan nan nan nan nan nan nan nan nan nan nan nan nan nan nan nan nan nan nan nan nan nan nan nan nan nan
CAPE
nan nan nan nan nan nan nan nan nan nan nan nan nan nan nan nan nan nan nan nan nan nan nan nan nan nan nan nan nan nan nan nan nan nan nan nan nan nan nan nan nan nan nan nan nan nan nan nan nan nan nan nan nan nan nan nan nan nan nan nan nan nan nan nan nan nan nan nan nan
nan nan nan nan nan nan nan nan nan nan nan nan nan nan nan nan nan nan nan nan nan nan nan nan nan nan nan nan nan nan nan nan nan nan nan nan nan nan nan nan nan nan nan nan nan nan nan nan nan nan nan nan nan nan nan nan nan nan nan nan nan nan nan nan nan nan nan nan nan
nan nan nan nan nan nan nan nan nan nan nan nan nan nan nan nan nan nan nan nan nan nan nan nan nan nan nan nan nan nan nan nan nan nan nan nan nan nan nan nan nan nan nan nan nan nan nan nan nan nan nan nan nan nan nan nan nan nan nan nan nan nan nan nan nan nan nan nan nan
nan nan nan nan nan nan nan nan nan nan nan nan nan nan nan nan nan nan nan nan nan nan nan nan nan nan nan nan nan nan nan nan nan nan nan nan nan nan nan nan nan nan nan nan nan nan nan nan nan nan nan nan nan nan nan nan nan nan nan nan nan nan nan nan nan nan nan nan nan
nan nan nan nan nan nan nan nan nan nan nan nan nan nan nan nan nan nan nan nan nan nan nan nan nan nan nan nan nan nan nan nan nan nan nan nan nan nan nan nan nan nan nan nan nan nan nan nan nan nan nan nan nan nan nan nan nan nan nan nan nan nan nan nan nan nan nan nan nan
nan nan nan nan nan nan nan nan nan nan nan nan nan nan nan nan nan nan nan nan nan nan nan nan nan nan nan nan nan nan nan nan nan nan nan nan nan nan nan nan nan nan nan nan nan nan nan nan nan nan nan nan nan nan nan nan nan nan nan nan nan nan nan nan nan nan nan nan nan
nan nan nan nan nan nan nan nan nan nan nan nan nan nan nan nan nan nan nan nan nan nan nan nan nan nan nan nan nan nan nan nan nan nan nan nan nan nan nan nan nan nan nan nan nan nan nan nan nan nan nan nan nan nan nan nan nan nan nan nan nan nan nan nan nan nan nan nan nan
nan nan nan nan nan nan nan nan nan nan nan nan nan nan nan nan nan nan nan nan nan nan nan nan nan nan nan nan nan nan nan nan nan nan nan nan nan nan nan nan nan nan nan nan nan nan nan nan nan nan nan nan nan nan nan nan nan nan nan nan nan nan nan nan nan nan nan nan nan
nan nan nan nan nan nan nan nan nan nan nan nan nan nan nan nan nan nan nan nan nan nan nan nan nan nan nan nan nan nan nan nan nan nan nan nan nan nan nan nan nan nan nan nan nan nan nan nan nan nan nan nan nan nan nan nan nan nan nan nan nan nan nan nan nan nan nan nan nan
nan nan nan nan nan nan nan nan nan nan nan nan nan nan nan nan nan nan nan nan nan nan nan nan nan nan nan nan nan nan nan nan nan nan nan nan nan nan nan nan nan nan nan nan nan nan nan nan nan nan nan nan nan nan nan nan nan nan nan nan nan nan nan nan nan nan nan nan nan
nan nan nan nan nan nan nan nan nan nan nan nan nan nan nan nan nan nan nan nan nan nan nan nan nan nan nan nan nan nan nan nan nan nan nan nan nan nan nan nan nan nan nan nan nan nan nan nan nan nan nan nan nan nan nan nan nan nan nan nan nan nan nan nan nan nan nan nan nan
nan nan nan nan nan nan nan nan nan nan nan nan nan nan nan nan nan nan nan nan nan nan nan nan nan nan nan nan nan nan nan nan nan nan nan nan nan nan nan nan nan nan nan nan nan nan nan nan nan nan nan nan nan nan nan nan nan nan nan nan nan nan nan nan nan nan nan nan nan
nan nan nan nan nan nan nan nan nan nan nan nan nan nan nan nan nan nan nan nan nan nan nan nan nan nan nan nan nan nan nan nan nan nan nan nan nan nan nan nan nan nan nan nan nan nan nan nan nan nan nan nan nan nan nan nan nan nan nan nan nan nan nan nan nan nan nan nan nan
nan nan nan nan nan nan nan nan nan nan nan nan nan nan nan nan nan nan nan nan nan nan nan nan nan nan nan nan nan nan nan nan nan nan nan nan nan nan nan nan nan nan nan nan nan nan nan nan nan nan nan nan nan nan nan nan nan nan nan nan nan nan nan nan nan nan nan nan nan
nan nan nan nan nan nan nan nan nan nan nan nan nan nan nan nan nan nan nan nan nan nan nan nan nan nan nan nan nan nan nan nan nan nan nan nan nan nan nan nan nan nan nan nan nan nan nan nan nan nan nan nan nan nan nan nan nan nan nan nan nan nan nan nan nan nan nan nan nan
nan nan nan nan nan nan nan nan nan nan nan nan nan nan nan nan nan nan nan nan nan nan nan nan nan nan nan nan nan nan nan nan nan nan nan nan nan nan nan nan nan nan nan nan nan nan nan nan nan nan nan nan nan nan nan nan nan nan nan nan nan nan nan nan nan nan nan nan nan
nan nan nan nan nan nan nan nan nan nan nan nan nan nan nan nan nan nan nan nan nan nan nan nan nan nan nan nan nan nan nan nan nan nan nan nan nan nan nan nan nan nan nan nan nan nan nan nan nan nan nan nan nan nan nan nan nan nan nan nan nan nan nan nan nan nan nan nan nan
nan nan nan nan nan nan nan nan nan nan nan nan nan nan nan nan nan nan nan nan nan nan nan nan nan nan nan nan nan nan nan nan nan nan nan nan nan nan nan nan nan nan nan nan nan nan nan nan nan nan nan nan nan nan nan nan nan nan nan nan nan nan nan nan nan nan nan nan nan
nan nan nan nan nan nan nan nan nan nan nan nan nan nan nan nan nan nan nan nan nan nan nan nan nan nan nan nan nan nan nan nan nan nan nan nan nan nan nan nan nan nan nan nan nan nan nan nan nan nan nan nan nan nan nan nan nan nan nan nan nan nan nan nan nan nan nan nan nan
nan nan nan nan nan nan nan nan nan nan nan nan nan nan nan nan nan nan nan nan nan nan nan nan nan nan nan nan nan nan nan nan nan nan nan nan nan nan nan nan nan nan nan nan nan nan nan nan nan nan nan nan nan nan nan nan nan nan nan nan nan nan nan nan nan nan nan nan nan
nan nan nan nan nan nan nan nan nan nan nan nan nan nan nan nan nan nan nan nan nan nan nan nan nan nan nan nan nan nan nan nan nan nan nan nan nan nan nan nan nan nan nan nan nan nan nan nan nan nan nan nan nan nan nan nan nan nan nan nan nan nan nan nan nan nan nan nan nan
nan nan nan nan nan nan nan nan nan nan nan nan nan nan nan nan nan nan nan nan nan nan nan nan nan nan nan nan nan nan nan nan nan nan nan nan nan nan nan nan nan nan nan nan nan nan nan nan nan nan nan nan nan nan nan nan nan nan nan nan nan nan nan nan nan nan nan nan nan
nan nan nan nan nan nan nan nan nan nan nan nan nan nan nan nan nan nan nan nan nan nan nan nan nan nan nan nan nan nan nan nan nan nan nan nan nan nan nan nan nan nan nan nan nan nan nan nan nan nan nan nan nan nan nan nan nan nan nan nan nan nan nan nan nan nan nan nan nan
nan nan nan nan nan nan nan nan nan nan nan nan nan nan nan nan nan nan nan nan nan nan nan nan nan nan nan nan nan nan nan nan nan nan nan nan nan nan nan nan nan nan nan nan nan nan nan nan nan nan nan nan nan nan nan nan nan nan nan nan nan nan nan nan nan nan nan nan nan
nan nan nan nan nan nan nan nan nan nan nan nan nan nan nan nan nan nan nan nan nan nan nan nan nan nan nan nan nan nan nan nan nan nan nan nan nan nan nan nan nan nan nan nan nan nan nan nan nan nan nan nan nan nan nan nan nan nan nan nan nan nan nan nan nan nan nan nan nan
nan nan nan nan nan nan nan nan nan nan nan nan nan nan nan nan nan nan nan nan nan nan nan nan nan nan nan nan nan nan nan nan nan nan nan nan nan nan nan nan nan nan nan nan nan nan nan nan nan nan nan nan nan nan nan nan nan nan nan nan nan nan nan nan nan nan nan nan nan
nan nan nan nan nan nan nan nan nan nan nan nan nan nan nan nan nan nan nan nan nan nan nan nan nan nan nan nan nan nan nan nan nan nan nan nan nan nan nan nan nan nan nan nan nan nan nan nan nan nan nan nan nan nan nan nan nan nan nan nan nan nan nan nan nan nan nan nan nan
nan nan nan nan nan nan nan nan nan nan nan nan nan nan nan nan nan nan nan nan nan nan nan nan nan nan nan nan nan nan nan nan nan nan nan nan nan nan nan nan nan nan nan nan nan nan nan nan nan nan nan nan nan nan nan nan nan nan nan nan nan nan nan nan nan nan nan nan nan
nan nan nan nan nan nan nan nan nan nan nan nan nan nan nan nan nan nan nan nan nan nan nan nan nan nan nan nan nan nan nan nan nan nan nan nan nan nan nan nan nan nan nan nan nan nan nan nan nan nan nan nan nan nan nan nan nan nan nan nan nan nan nan nan nan nan nan nan nan
nan nan nan nan nan nan nan nan nan nan nan nan nan nan nan nan nan nan nan nan nan nan nan nan nan nan nan nan nan nan nan nan nan nan nan nan nan nan nan nan nan nan nan nan nan nan nan nan nan nan nan nan nan nan nan nan nan nan nan nan nan nan nan nan nan nan nan nan nan
nan nan nan nan nan nan nan nan nan nan nan nan nan nan nan nan nan nan nan nan nan nan nan nan nan nan nan nan nan nan nan nan nan nan nan nan nan nan nan nan nan nan nan nan nan nan nan nan nan nan nan 0 nan nan nan nan nan nan nan nan nan nan nan nan nan nan nan nan nan
nan nan nan nan nan nan nan nan nan nan nan nan nan nan nan nan nan nan nan nan nan nan nan nan nan nan nan nan nan nan nan nan nan nan nan nan nan nan nan nan nan nan nan nan nan nan nan nan nan nan nan 0 nan nan nan nan nan nan nan nan nan nan nan nan nan nan nan nan nan
nan nan nan nan nan nan nan nan nan nan nan nan nan nan nan nan nan nan nan nan nan nan nan nan nan nan nan nan nan nan nan nan nan nan nan nan nan nan nan nan nan nan nan nan nan nan nan nan nan nan nan 1 nan nan nan nan nan nan nan nan nan nan nan nan nan nan nan nan nan
nan nan nan nan nan nan nan nan nan nan nan nan nan nan nan nan nan nan nan nan nan nan nan nan nan nan nan nan nan nan nan nan nan nan nan nan nan nan nan nan nan nan nan nan nan nan nan nan nan nan 0 3 nan nan nan nan nan nan nan nan nan nan nan nan nan nan nan nan nan
nan nan nan nan nan nan nan nan nan nan nan nan nan nan nan nan nan nan nan nan nan nan nan nan nan nan nan nan nan nan nan nan nan nan nan nan nan nan nan nan nan nan nan nan nan nan nan nan nan nan 0 3 nan nan nan nan nan nan nan nan nan nan nan nan nan nan nan nan nan
nan nan nan nan nan nan nan nan nan nan nan nan nan nan nan nan nan nan nan nan nan nan nan nan nan nan nan nan nan nan nan nan nan nan nan nan nan nan nan nan nan nan nan nan nan nan nan nan nan nan 1 nan nan nan nan nan nan nan nan nan nan nan nan nan nan nan nan nan nan
nan nan nan nan nan nan nan nan nan nan nan nan nan nan nan nan nan nan nan nan nan nan nan nan nan nan nan nan nan nan nan nan nan nan nan nan nan nan nan nan nan nan nan nan nan nan nan nan 0 0 2 nan nan nan nan nan nan nan nan nan nan nan nan nan nan nan nan nan nan
nan nan nan nan nan nan nan nan nan nan nan nan nan nan nan nan nan nan nan nan nan nan nan nan nan nan nan nan nan nan nan nan nan nan nan nan nan nan nan nan nan nan nan nan nan nan nan nan 0 0 2 nan nan nan nan nan nan nan nan nan nan nan nan nan nan nan nan nan 0
nan nan nan nan nan nan nan nan nan nan nan nan nan nan nan nan nan nan nan nan nan nan nan nan nan nan nan nan nan nan nan nan nan nan nan nan nan nan nan nan nan nan nan nan nan nan nan nan 1 1 5 nan nan nan nan nan nan nan nan nan nan nan nan nan nan nan nan 0 37
nan nan nan nan nan nan nan nan nan nan nan nan nan nan nan nan nan nan nan nan nan nan nan nan nan nan nan nan nan nan nan nan nan nan nan nan nan nan nan nan nan nan nan nan nan nan nan 0 3 3 8 0 nan nan nan nan nan nan nan nan nan nan nan nan 0 0 2 nan 26
nan nan nan nan nan nan nan nan nan nan nan nan nan nan nan nan nan nan nan nan nan nan nan nan nan nan nan nan nan nan nan nan nan nan nan nan nan nan nan nan nan nan nan nan nan nan nan 1 4 4 11 nan nan 0 0 nan nan nan nan nan nan nan nan 1 5 5 nan nan nan